[[{"header":{"parameterUnit":"m.s-1","parameterCategory":2,"la1":30.2991,"la2":30.254,"lo1":-89.0895,"lo2":-89.0444,"dy":0.0017,"dx":0.0017,"nx":28,"ny":28,"refTime":"2024-07-29T21:00:00:Z","depth":"0","parameterNumber":2,"parameterNumberName":"U-component_of_CURRENTS"},"data":[0,0,0,0,0,0,0,0,0,0,0,0,0,0,0,0,0,0,0,0,0,0,0,0,0,0,0,0,0,0,0,0,0,0,0,0,0,0,0,0,0,0,0,0,0,0,0,0,0,0,0,0,0,0,0,0,0,0,0.4627,0.4627,0,0.4636,0.4636,0.4636,0.4638,0.4638,0.4639,0.4639,0.4624,0.4624,0.4623,0,0,0,0,0,0,0,0,0,0,0,0,0,0.4622,0.4622,0.4627,0.4627,0.4628,0.4636,0.4636,0.4636,0.4638,0.4638,0.4639,0.4639,0.4625,0.4624,0.4623,0,0,0,0,0,0,0,0,0,0,0,0,0,0.4625,0.4622,0.4627,0.4632,0.4632,0.4636,0.4636,0.4636,0.4638,0.4638,0.4639,0.4639,0.4625,0.4624,0.4623,0.4613,0,0,0.4621,0.462,0,0,0,0,0,0,0,0,0.4624,0.4624,0.4631,0.4631,0.4632,0.4639,0.4629,0.4628,0.4638,0.4633,0.4639,0.4639,0.4628,0.4627,0.4625,0.4613,0.4612,0.4621,0.462,0.462,0.462,0,0,0,0,0,0,0,0.4624,0.4624,0.4628,0.4631,0.4632,0.4637,0.4637,0.4629,0.4627,0.4634,0.4635,0.4639,0.4628,0.4626,0.4625,0.4612,0.4621,0.462,0.4619,0.4619,0.4616,0.4616,0,0,0,0,0,0,0.4627,0.4624,0.4628,0.4629,0.4632,0.4637,0.4637,0.4634,0.4628,0.4628,0.4639,0.464,0.4627,0.4626,0.4624,0.4653,0.462,0.4619,0.4619,0.4615,0.4616,0.4616,0,0,0,0,0,0,0.4627,0.4627,0.4628,0.4629,0.463,0.4637,0.4634,0.4634,0.4635,0.4633,0.4632,0.464,0.4627,0.4626,0.4618,0.465,0.4619,0.4618,0.4615,0.4616,0.4616,0.4683,0,0,0,0,0,0,0.4626,0.4627,0.4615,0.4629,0.463,0.4627,0.4634,0.4634,0.4639,0.464,0.4633,0.4632,0.4627,0.4619,0.4617,0.4649,0.4617,0.4615,0.4615,0.4616,0.468,0.4686,0.469,0,0,0,0,0,0.4626,0.4599,0.4614,0.4614,0.4617,0.4627,0.4627,0.4632,0.4639,0.4635,0.4634,0.4632,0.4623,0.4619,0.4616,0.4648,0.4614,0.4615,0.4616,0.4678,0.4685,0.469,0,0,0,0,0,0,0.4517,0.4598,0.4614,0.4592,0.4613,0.4628,0.4617,0.4634,0.463,0.4631,0.4629,0.4627,0.4637,0.4623,0.4619,0.4647,0.4622,0.4622,0.467,0.4676,0.4681,0.4688,0.4617,0,0,0,0,0,0.4508,0.4537,0.4589,0.4553,0.4581,0.4605,0.4607,0.4623,0.4629,0.4628,0.4619,0.462,0.4638,0.464,0.4636,0.4645,0.4639,0.4664,0.4669,0.4674,0.4677,0.4705,0.4713,0.4619,0.4619,0.4619,0,0,0.4439,0.449,0.4493,0.4539,0.4557,0.4584,0.4605,0.4614,0.4628,0.4626,0.4616,0.463,0.4641,0.4658,0.4662,0.4653,0.4694,0.4675,0.4679,0.468,0.4707,0.4716,0.4725,0.462,0.462,0.462,0,0,0.4354,0.4384,0.4413,0.4448,0.4508,0.4544,0.4555,0.4589,0.4604,0.4615,0.4627,0.4659,0.4652,0.4683,0.4701,0.4727,0.4718,0.4724,0.4763,0.4791,0.48,0.4807,0.4801,0.4807,0.4732,0.4732,0.4732,0,0.4278,0.431,0.4402,0.444,0.4452,0.4533,0.4542,0.458,0.4594,0.4611,0.4615,0.466,0.4674,0.4732,0.4755,0.4744,0.4739,0.4745,0.48,0.4807,0.4814,0.4806,0.4812,0.4735,0.4735,0.4734,0.4734,0,0.4247,0.4259,0.4264,0.4366,0.4395,0.4403,0.4495,0.4524,0.4565,0.4603,0.4657,0.4694,0.4721,0.4752,0.477,0.4833,0.4808,0.4803,0.4791,0.4828,0.4816,0.4822,0.474,0.4739,0.4738,0.4737,0,0,0.4123,0.4232,0.423,0.4258,0.4359,0.4379,0.4434,0.4508,0.4546,0.4605,0.464,0.4729,0.4765,0.4786,0.4824,0.4877,0.4934,0.4868,0.4868,0.4872,0.4971,0.4761,0.4746,0.4943,0.4944,0.4945,0.4941,0,0.4071,0.4112,0.4184,0.4192,0.4225,0.4316,0.4357,0.4438,0.4511,0.4566,0.4676,0.4719,0.4776,0.4802,0.487,0.4913,0.4953,0.4934,0.4925,0.4924,0.4742,0.4747,0.4522,0.4481,0.4946,0.4947,0.4947,0,0.4058,0.408,0.4088,0.4144,0.4166,0.4186,0.4281,0.4325,0.4456,0.4513,0.4611,0.4679,0.4788,0.4818,0.4932,0.4915,0.4947,0.4986,0.4986,0.477,0.4723,0.452,0.4473,0.4418,0.4955,0.4954,0.4954,0,0.3999,0.4025,0.4025,0.4039,0.4119,0.4135,0.4181,0.4302,0.4353,0.4476,0.4523,0.4654,0.4708,0.4801,0.4883,0.4912,0.4974,0.5013,0.4854,0.4839,0.4631,0.4593,0.4533,0.5076,0.5076,0.5076,0.5076,0,0.3971,0.3969,0.399,0.3997,0.3992,0.4068,0.41,0.4181,0.4285,0.4337,0.4481,0.454,0.4709,0.4769,0.4856,0.4838,0.4941,0.4848,0.4821,0.4641,0.4606,0.4533,0.452,0.5076,0.5076,0.5076,0.5076,0,0.396,0.3971,0.3964,0.398,0.3982,0.3986,0.4048,0.4082,0.4184,0.4254,0.429,0.4453,0.4503,0.4616,0.4733,0.4751,0.464,0.4749,0.45,0.4442,0.4216,0.4213,0.3956,0.3853,0.458,0.4575,0.457,0,0.3976,0.3966,0.3939,0.3917,0.3924,0.3929,0.3945,0.4034,0.4065,0.4194,0.4215,0.4286,0.4302,0.4357,0.438,0.4404,0.44,0.4222,0.4237,0.4145,0.4128,0.4039,0.3969,0.4005,0.3997,0.3989,0.3984,0,0.3974,0.3954,0.3938,0.3868,0.3849,0.3837,0.385,0.3856,0.395,0.399,0.4023,0.4034,0.4047,0.3943,0.3931,0.396,0.3992,0.4071,0.4064,0.372,0.3534,0.3439,0.4066,0.392,0.3927,0.3931,0.3935,0.3937,0.3956,0.3913,0.3851,0.3766,0.3755,0.3698,0.3622,0.3643,0.3626,0.3587,0.3752,0.3661,0.3648,0.3577,0.3558,0.3416,0.3506,0.3386,0.3409,0.3344,0.3161,0.3604,0.3365,0.3368,0.3371,0.3373,0.3375,0,0.3835,0.3784,0.3741,0.3607,0.3518,0.3552,0.3507,0.3384,0.3258,0.33,0.3264,0.319,0.3045,0.3048,0.2958,0.2845,0.278,0.2784,0.2682,0.2668,0.3142,0.3035,0.2603,0.2604,0.2604,0.2604,0.2604,0.2604,0.3769,0.3637,0.3569,0.3346,0.3275,0.3083,0.3003,0.2879,0.2845,0.2674,0.2595,0.2628,0.2739,0.2689,0.2558,0.2493,0.24,0.2177,0.2288,0.2718,0.278,0.2839,0.2739,0.2252,0.2252,0.1701,0.1697,0.1693]},{"header":{"parameterUnit":"m.s-1","parameterCategory":2,"la1":30.2991,"la2":30.254,"lo1":-89.0895,"lo2":-89.0444,"dy":0.0017,"dx":0.0017,"nx":28,"ny":28,"refTime":"2024-07-29T21:00:00:Z","depth":"0","parameterNumber":3,"parameterNumberName":"V-component_of_CURRENTS"},"data":[0,0,0,0,0,0,0,0,0,0,0,0,0,0,0,0,0,0,0,0,0,0,0,0,0,0,0,0,0,0,0,0,0,0,0,0,0,0,0,0,0,0,0,0,0,0,0,0,0,0,0,0,0,0,0,0,0,0,-0.0288,-0.0288,0,-0.0302,-0.0302,-0.0302,-0.0335,-0.0335,-0.0336,-0.0337,-0.0413,-0.0415,-0.0416,0,0,0,0,0,0,0,0,0,0,0,0,0,-0.0208,-0.0209,-0.0288,-0.0288,-0.0288,-0.0302,-0.0302,-0.0302,-0.0334,-0.0335,-0.0336,-0.0337,-0.0413,-0.0414,-0.0416,0,0,0,0,0,0,0,0,0,0,0,0,0,-0.0234,-0.021,-0.0288,-0.0306,-0.0308,-0.0302,-0.0302,-0.0302,-0.0334,-0.0335,-0.0336,-0.0337,-0.0412,-0.0414,-0.0416,-0.0408,0,0,-0.0423,-0.0424,0,0,0,0,0,0,0,0,-0.0233,-0.0237,-0.0303,-0.0305,-0.0307,-0.0318,-0.0302,-0.0341,-0.0334,-0.0324,-0.0337,-0.0338,-0.0386,-0.0391,-0.039,-0.0412,-0.0415,-0.0423,-0.0424,-0.0425,-0.0426,0,0,0,0,0,0,0,-0.0231,-0.0236,-0.0293,-0.0303,-0.0306,-0.0286,-0.0291,-0.0308,-0.035,-0.0325,-0.0327,-0.0329,-0.0388,-0.0388,-0.0392,-0.0416,-0.0423,-0.0425,-0.0426,-0.0427,-0.0427,-0.0426,0,0,0,0,0,0,-0.0233,-0.0235,-0.0293,-0.0294,-0.0272,-0.0287,-0.0293,-0.0313,-0.0349,-0.0355,-0.0328,-0.033,-0.0384,-0.039,-0.0395,-0.036,-0.0425,-0.0427,-0.0428,-0.0429,-0.0427,-0.0426,0,0,0,0,0,0,-0.0231,-0.0239,-0.0292,-0.0263,-0.0269,-0.0287,-0.0309,-0.0313,-0.031,-0.035,-0.0358,-0.0322,-0.0385,-0.0392,-0.0401,-0.0365,-0.0428,-0.043,-0.043,-0.0428,-0.0426,-0.0308,0,0,0,0,0,0,-0.0229,-0.0239,-0.024,-0.0264,-0.0271,-0.0271,-0.0308,-0.0312,-0.031,-0.0313,-0.0348,-0.0356,-0.0386,-0.0397,-0.0403,-0.0369,-0.0432,-0.0432,-0.0429,-0.0427,-0.0314,-0.0302,-0.0293,0,0,0,0,0,-0.0227,-0.0208,-0.024,-0.0246,-0.0277,-0.0269,-0.0269,-0.0286,-0.0308,-0.029,-0.0322,-0.0355,-0.0387,-0.0398,-0.0405,-0.037,-0.0433,-0.043,-0.0427,-0.0318,-0.0305,-0.0293,0,0,0,0,0,0,-0.0126,-0.0211,-0.0246,-0.0243,-0.0255,-0.0274,-0.0255,-0.0277,-0.0286,-0.0294,-0.034,-0.0349,-0.0341,-0.0375,-0.0386,-0.0365,-0.0414,-0.0413,-0.0329,-0.0317,-0.0307,-0.0247,-0.0433,0,0,0,0,0,-0.0119,-0.0147,-0.0203,-0.0184,-0.0205,-0.0234,-0.023,-0.0247,-0.0264,-0.0269,-0.0297,-0.0324,-0.0333,-0.0341,-0.0358,-0.0348,-0.0353,-0.0331,-0.0321,-0.0311,-0.0268,-0.0262,-0.0246,-0.0417,-0.0417,-0.0417,0,0,-0.0061,-0.0113,-0.012,-0.0168,-0.0186,-0.0171,-0.0233,-0.0223,-0.0195,-0.0277,-0.0248,-0.0289,-0.0323,-0.0307,-0.0307,-0.0332,-0.0266,-0.0308,-0.03,-0.026,-0.0257,-0.024,-0.0225,-0.0415,-0.0415,-0.0415,0,0,0.0049,-0.0025,-0.0017,-0.0037,-0.0076,-0.0105,-0.0103,-0.0138,-0.0146,-0.0134,-0.0181,-0.0195,-0.0217,-0.0225,-0.0234,-0.0177,-0.0211,-0.0194,-0.0091,-0.0086,-0.0071,-0.0058,-0.004,-0.0026,-0.019,-0.019,-0.0189,0,0.0119,0.0112,0.0007,0.0017,0.0023,-0.0073,-0.0028,-0.0047,-0.0067,-0.0054,-0.0108,-0.011,-0.0165,-0.0116,-0.0108,-0.0148,-0.0149,-0.0136,-0.007,-0.0057,-0.0046,-0.003,-0.0016,-0.0184,-0.0184,-0.0185,-0.0185,0,0.0225,0.0225,0.0239,0.0195,0.0191,0.0214,0.0153,0.0152,0.0111,0.0098,0.0122,0.0052,0.006,0.0025,-0.0027,0.0033,0.0006,-0.0057,-0.0094,-0.0021,-0.001,0.0003,-0.0175,-0.0177,-0.0179,-0.018,0,0,0.0348,0.0315,0.0322,0.0333,0.0278,0.029,0.0318,0.0326,0.0365,0.0318,0.039,0.0334,0.0287,0.0275,0.0201,0.0188,0.0237,0.0106,0.0104,0.014,0.0269,0.0206,0.0212,0.0183,0.0185,0.0187,0.0246,0,0.0461,0.0525,0.0479,0.0561,0.0575,0.0506,0.0549,0.0542,0.0516,0.0551,0.0484,0.0506,0.0384,0.0382,0.0359,0.0268,0.0275,0.0229,0.0182,0.0182,0.0127,0.0226,0.0206,0.0253,0.0258,0.026,0.0261,0,0.0552,0.058,0.0678,0.071,0.0713,0.0758,0.079,0.0818,0.0823,0.0808,0.0814,0.0751,0.0744,0.061,0.0548,0.0524,0.0429,0.0346,0.0344,0.0263,0.0142,0.0177,0.0274,0.0175,0.0279,0.0278,0.0277,0,0.0642,0.0708,0.0793,0.0803,0.083,0.0881,0.09,0.0909,0.0942,0.0977,0.1006,0.0984,0.0964,0.0869,0.0671,0.0626,0.0589,0.05,0.0372,0.0366,0.0332,0.0318,0.0344,0.0488,0.0488,0.0488,0.0488,0,0.0733,0.0797,0.0847,0.0888,0.0996,0.0984,0.1091,0.1099,0.1146,0.1211,0.1147,0.1187,0.102,0.0951,0.0783,0.0626,0.0682,0.0441,0.0393,0.037,0.0359,0.0253,0.0163,0.049,0.0489,0.0489,0.0489,0,0.0787,0.0826,0.0915,0.0996,0.103,0.1099,0.1183,0.1249,0.1284,0.1373,0.1393,0.1356,0.127,0.1092,0.0928,0.0761,0.0542,0.0538,0.0527,0.0476,0.0257,0.0173,0.0143,0.0096,0.0453,0.0452,0.0451,0,0.081,0.0867,0.0984,0.1042,0.1083,0.1184,0.1247,0.1306,0.1373,0.1467,0.1518,0.1481,0.1444,0.1203,0.0917,0.068,0.0526,0.0493,0.0395,0.0294,0.0164,0.0106,0.0065,0.0403,0.0402,0.0401,0.04,0,0.0855,0.0902,0.098,0.1097,0.1186,0.1284,0.1387,0.1462,0.1541,0.1625,0.1706,0.17,0.1475,0.122,0.0881,0.0694,0.0414,0.0464,0.0372,0.0162,0.0092,0.0006,0.032,0.0392,0.0393,0.0393,0.0394,0.0394,0.0877,0.0938,0.1041,0.1145,0.1247,0.1361,0.1442,0.1557,0.168,0.1794,0.1808,0.1813,0.1482,0.1017,0.0774,0.0344,0.0335,0.02,0.0121,0.0085,-0.0,0.0302,0.0291,0.0291,0.0291,0.0292,0.0292,0,0.0891,0.097,0.1074,0.1202,0.1297,0.1355,0.1511,0.1591,0.1732,0.1844,0.1904,0.175,0.1328,0.0927,0.0341,0.0058,-0.0033,-0.0087,-0.0153,-0.0169,0.0127,0.0082,0.001,0.001,0.001,0.001,0.001,0.001,0.0905,0.1001,0.1057,0.1206,0.1294,0.1415,0.1499,0.1639,0.1748,0.1854,0.187,0.1867,0.1579,0.0567,-0.0088,-0.0234,-0.0377,-0.045,-0.0507,-0.0305,-0.0283,-0.0263,-0.0321,-0.0476,-0.0477,-0.0752,-0.0755,-0.0758]}],[{"header":{"parameterUnit":"m.s-1","parameterCategory":2,"la1":30.2991,"la2":30.254,"lo1":-89.0895,"lo2":-89.0444,"dy":0.0017,"dx":0.0017,"nx":28,"ny":28,"refTime":"2024-07-29T21:00:00:Z","depth":"2","parameterNumber":2,"parameterNumberName":"U-component_of_CURRENTS"},"data":[0,0,0,0,0,0,0,0,0,0,0,0,0,0,0,0,0,0,0,0,0,0,0,0,0,0,0,0,0,0,0,0,0,0,0,0,0,0,0,0,0,0,0,0,0,0,0,0,0,0,0,0,0,0,0,0,0,0,0.3209,0.321,0,0.3279,0.328,0.328,0.3302,0.3303,0.3303,0.3303,0.3376,0.3377,0.3379,0,0,0,0,0,0,0,0,0,0,0,0,0,0.3149,0.3149,0.3209,0.321,0.3212,0.3279,0.328,0.328,0.3302,0.3303,0.3303,0.3304,0.3375,0.3377,0.3379,0,0,0,0,0,0,0,0,0,0,0,0,0,0.3185,0.3149,0.3208,0.3237,0.3241,0.3279,0.328,0.328,0.3302,0.3303,0.3303,0.3304,0.3374,0.3377,0.3379,0.3382,0,0,0.3386,0.3387,0,0,0,0,0,0,0,0,0.3183,0.3186,0.3231,0.3235,0.324,0.329,0.3286,0.3317,0.3302,0.3271,0.3303,0.3304,0.3352,0.3356,0.3357,0.3385,0.3388,0.3386,0.3388,0.3389,0.3389,0,0,0,0,0,0,0,0.318,0.3184,0.3229,0.3233,0.3238,0.3266,0.327,0.3291,0.3301,0.3273,0.3277,0.3297,0.3353,0.3354,0.3359,0.3389,0.3386,0.3388,0.339,0.3391,0.353,0.3532,0,0,0,0,0,0,0.3184,0.3181,0.3227,0.3232,0.3221,0.3267,0.3272,0.3266,0.3301,0.3309,0.3297,0.3298,0.335,0.3356,0.3361,0.348,0.3389,0.3391,0.3392,0.3528,0.3531,0.3533,0,0,0,0,0,0,0.3182,0.3186,0.3224,0.3216,0.3224,0.3268,0.3262,0.3268,0.3303,0.332,0.3326,0.3331,0.3351,0.3358,0.3415,0.3479,0.3392,0.3394,0.3525,0.3529,0.3532,0.3646,0,0,0,0,0,0,0.3179,0.3184,0.3187,0.3215,0.3225,0.3296,0.3262,0.3269,0.3316,0.3319,0.3351,0.3356,0.3352,0.3411,0.3417,0.3481,0.3396,0.3522,0.3527,0.3531,0.3639,0.3653,0.3664,0,0,0,0,0,0.3176,0.3165,0.3185,0.3193,0.3224,0.3299,0.3308,0.3335,0.3318,0.3361,0.3366,0.3357,0.3443,0.3415,0.3421,0.3487,0.352,0.3526,0.3531,0.3633,0.365,0.3664,0,0,0,0,0,0,0.3121,0.3169,0.3191,0.319,0.3271,0.3307,0.3342,0.3354,0.3388,0.3384,0.3383,0.339,0.3461,0.3456,0.3426,0.3539,0.3482,0.3488,0.3558,0.3573,0.3586,0.3616,0.3398,0,0,0,0,0,0.3118,0.3138,0.3203,0.3217,0.3259,0.3307,0.3339,0.3363,0.3396,0.3412,0.3432,0.345,0.3482,0.3514,0.3533,0.3598,0.3566,0.3645,0.3657,0.3668,0.3697,0.3717,0.3735,0.355,0.355,0.355,0,0,0.3107,0.3134,0.3148,0.3213,0.3268,0.3313,0.3327,0.3393,0.342,0.3414,0.3458,0.3493,0.3505,0.3576,0.3609,0.3587,0.3691,0.3675,0.3684,0.3707,0.3725,0.3743,0.3759,0.3554,0.3553,0.3553,0,0,0.3094,0.3125,0.3147,0.3215,0.331,0.3338,0.3369,0.3436,0.347,0.3537,0.3525,0.3609,0.3652,0.3687,0.3704,0.38,0.3749,0.3807,0.3911,0.3931,0.3947,0.396,0.3885,0.3891,0.3824,0.3825,0.3825,0,0.3082,0.3096,0.3174,0.3219,0.3257,0.3351,0.338,0.3436,0.3508,0.3554,0.3571,0.3676,0.3709,0.3786,0.3847,0.3833,0.3801,0.3852,0.3948,0.3961,0.3973,0.3893,0.3898,0.3831,0.383,0.383,0.3829,0,0.3065,0.3113,0.3143,0.3214,0.3274,0.3327,0.3416,0.3489,0.3546,0.3609,0.3731,0.3794,0.3854,0.3904,0.3924,0.4031,0.3961,0.395,0.3909,0.3999,0.3907,0.391,0.384,0.3837,0.3836,0.3834,0,0,0.2989,0.3097,0.3128,0.3162,0.3267,0.3314,0.3394,0.3502,0.3549,0.3696,0.3759,0.3922,0.3982,0.4007,0.4042,0.413,0.4195,0.411,0.4108,0.4033,0.4174,0.3988,0.3972,0.4207,0.4209,0.4212,0.4054,0,0.2969,0.302,0.3076,0.3147,0.3188,0.3294,0.3361,0.3478,0.3574,0.3668,0.3827,0.3899,0.4002,0.4038,0.415,0.4186,0.4219,0.4234,0.4102,0.4096,0.3921,0.3977,0.3735,0.3565,0.4057,0.4057,0.4058,0,0.2972,0.2988,0.3031,0.3125,0.3153,0.32,0.3315,0.3375,0.3552,0.3642,0.3787,0.3864,0.4033,0.4077,0.4214,0.4218,0.4212,0.4247,0.4239,0.404,0.392,0.3568,0.3552,0.4062,0.4062,0.4061,0.4061,0,0.2914,0.2994,0.3009,0.304,0.3136,0.3184,0.3237,0.3391,0.3469,0.3603,0.3677,0.3847,0.392,0.402,0.4131,0.4163,0.4229,0.4233,0.4035,0.4016,0.3772,0.3727,0.4279,0.4279,0.4279,0.428,0.428,0,0.2905,0.2937,0.2992,0.3003,0.3046,0.3126,0.3186,0.3292,0.3423,0.3499,0.3643,0.3712,0.393,0.3998,0.4081,0.4064,0.4156,0.4057,0.3989,0.3794,0.3756,0.4175,0.4165,0.4274,0.4275,0.4276,0.4277,0,0.2913,0.2942,0.2965,0.3014,0.3039,0.3079,0.3177,0.3218,0.3344,0.3425,0.3471,0.3644,0.3709,0.3842,0.3949,0.3945,0.3964,0.3904,0.362,0.3524,0.3733,0.3732,0.3658,0.3651,0.3644,0.3639,0.3635,0,0.2943,0.2953,0.2964,0.299,0.3025,0.3069,0.3103,0.3203,0.3231,0.3368,0.3396,0.3485,0.3507,0.356,0.359,0.3581,0.3754,0.3296,0.334,0.3742,0.3683,0.369,0.3697,0.3025,0.3016,0.3008,0.3003,0,0.2961,0.2958,0.2939,0.2952,0.2982,0.2992,0.3027,0.3045,0.312,0.3176,0.3201,0.3217,0.3249,0.314,0.312,0.3112,0.3296,0.3138,0.3642,0.3228,0.3135,0.308,0.3109,0.2937,0.2944,0.2948,0.2952,0.2955,0.2952,0.2947,0.2884,0.2889,0.2907,0.2857,0.2799,0.2818,0.2797,0.2801,0.2925,0.2852,0.2887,0.2733,0.2654,0.2613,0.2849,0.2761,0.2788,0.2822,0.2786,0.269,0.2394,0.2397,0.24,0.2403,0.2405,0,0.2859,0.2834,0.2833,0.275,0.2669,0.2736,0.2687,0.2577,0.2448,0.2531,0.2516,0.2304,0.2203,0.2258,0.2091,0.2064,0.2113,0.1987,0.2059,0.2123,0.2181,0.2119,0.1546,0.1543,0.154,0.1538,0,0,0.2817,0.2693,0.264,0.2446,0.2443,0.2271,0.2204,0.2114,0.2103,0.2001,0.197,0.2122,0.2186,0.1849,0.1799,0.1643,0.1881,0.1581,0.2274,0.2425,0.248,0.2629,0.2604,0,0,0,0,0]},{"header":{"parameterUnit":"m.s-1","parameterCategory":2,"la1":30.2991,"la2":30.254,"lo1":-89.0895,"lo2":-89.0444,"dy":0.0017,"dx":0.0017,"nx":28,"ny":28,"refTime":"2024-07-29T21:00:00:Z","depth":"2","parameterNumber":3,"parameterNumberName":"V-component_of_CURRENTS"},"data":[0,0,0,0,0,0,0,0,0,0,0,0,0,0,0,0,0,0,0,0,0,0,0,0,0,0,0,0,0,0,0,0,0,0,0,0,0,0,0,0,0,0,0,0,0,0,0,0,0,0,0,0,0,0,0,0,0,0,0.0376,0.0375,0,0.0322,0.0321,0.032,0.0237,0.0236,0.0234,0.0233,0.0083,0.008,0.0077,0,0,0,0,0,0,0,0,0,0,0,0,0,0.0351,0.0352,0.0376,0.0375,0.0375,0.0322,0.0321,0.032,0.0237,0.0236,0.0234,0.0232,0.0084,0.008,0.0077,0,0,0,0,0,0,0,0,0,0,0,0,0,0.0335,0.0352,0.0376,0.0328,0.0323,0.0322,0.0321,0.032,0.0238,0.0236,0.0234,0.0232,0.0085,0.0081,0.0077,0.0093,0,0,0.0064,0.0062,0,0,0,0,0,0,0,0,0.0336,0.0336,0.0335,0.0331,0.0326,0.0285,0.0257,0.024,0.0238,0.0269,0.0233,0.0231,0.0144,0.0135,0.0129,0.0086,0.0079,0.0064,0.0061,0.006,0.0058,0,0,0,0,0,0,0,0.0337,0.0337,0.0353,0.0335,0.0329,0.029,0.0286,0.0254,0.0216,0.0266,0.026,0.0257,0.014,0.0133,0.0124,0.0077,0.0064,0.006,0.0058,0.0056,-0.0059,-0.0059,0,0,0,0,0,0,0.0352,0.0339,0.0355,0.0351,0.0327,0.0293,0.0288,0.0299,0.0218,0.0205,0.0259,0.0253,0.0141,0.0129,0.0119,0.0056,0.006,0.0056,0.0053,-0.0058,-0.0059,-0.0059,0,0,0,0,0,0,0.0352,0.0355,0.0357,0.0344,0.0341,0.0296,0.0309,0.0299,0.0259,0.0214,0.0198,0.0224,0.0139,0.0124,0.0073,0.0052,0.0054,0.005,-0.0057,-0.0058,-0.0059,-0.002,0,0,0,0,0,0,0.0352,0.0356,0.0359,0.0346,0.0343,0.0337,0.0311,0.03,0.0263,0.0254,0.018,0.0166,0.0136,0.0079,0.0069,0.0047,0.0047,-0.0057,-0.0058,-0.0059,-0.0021,-0.0019,-0.0019,0,0,0,0,0,0.0352,0.0367,0.036,0.0361,0.0353,0.0337,0.0331,0.029,0.0263,0.0245,0.0201,0.0166,0.0064,0.0076,0.0064,0.004,-0.0056,-0.0057,-0.0059,-0.0021,-0.002,-0.0019,0,0,0,0,0,0,0.0352,0.0361,0.0351,0.0367,0.0345,0.0323,0.03,0.028,0.0233,0.0213,0.0167,0.0151,0.0094,0.0065,0.008,0.0003,-0.0005,-0.0009,0.0027,0.0028,0.0029,0.0089,0.0044,0,0,0,0,0,0.036,0.0376,0.0364,0.0372,0.0355,0.0324,0.0307,0.0284,0.0249,0.0225,0.0176,0.0124,0.0087,0.0056,0.0016,-0.002,-0.0019,-0.0047,-0.0045,-0.0044,-0.0005,-0.0012,-0.0007,-0.0064,-0.0064,-0.0064,0,0,0.0358,0.0369,0.0373,0.0373,0.0345,0.0348,0.0306,0.0276,0.0284,0.0217,0.0184,0.0123,0.0079,0.0038,0.0009,0.0005,-0.0036,-0.0046,-0.0044,-0.0005,-0.0013,-0.0007,-0.0001,-0.0065,-0.0065,-0.0064,0,0,0.0381,0.0369,0.0389,0.0379,0.0353,0.034,0.0328,0.0289,0.0264,0.0239,0.0189,0.0124,0.0065,0.0031,0.001,-0.0006,-0.0029,-0.004,0.0013,0.0004,0.001,0.0016,-0.0001,0.0002,-0.004,-0.004,-0.004,0,0.0377,0.0419,0.0386,0.0403,0.0404,0.034,0.0358,0.0334,0.0287,0.0282,0.0229,0.0149,0.0074,0.0062,0.004,-0.0002,-0.0005,0.0013,0.001,0.0015,0.002,0.0001,0.0005,-0.0038,-0.0038,-0.0038,-0.0038,0,0.0433,0.0448,0.0447,0.0464,0.0453,0.045,0.0423,0.0397,0.0352,0.0339,0.0293,0.0203,0.017,0.0105,0.0064,0.0054,0.004,0.0013,0.0016,0.0029,0.0007,0.001,-0.0035,-0.0036,-0.0037,-0.0037,0,0,0.0468,0.0489,0.0486,0.0506,0.0488,0.049,0.0491,0.0492,0.0507,0.043,0.0452,0.0338,0.0287,0.0262,0.0181,0.0144,0.0124,0.0094,0.0093,0.0096,0.0111,0.0061,0.0059,0.0104,0.0105,0.0106,0.0074,0,0.0517,0.0578,0.0577,0.0615,0.0632,0.0594,0.0616,0.0603,0.0569,0.0566,0.0479,0.0454,0.0353,0.0318,0.0275,0.017,0.014,0.0136,0.0085,0.0084,0.0053,0.0064,0.0089,0.0061,0.0077,0.0078,0.0078,0,0.0574,0.0615,0.0676,0.0708,0.071,0.0736,0.0754,0.0766,0.075,0.0723,0.0692,0.0626,0.0566,0.0467,0.0355,0.0363,0.0257,0.0164,0.0161,0.0117,0.0041,0.0054,0.0066,0.0083,0.0083,0.0082,0.0082,0,0.0625,0.0672,0.0733,0.0745,0.078,0.0807,0.0821,0.0817,0.0842,0.083,0.0835,0.0774,0.0729,0.0622,0.0421,0.0401,0.029,0.024,0.0103,0.0098,0.0114,0.0108,0.018,0.018,0.0181,0.0181,0.0181,0,0.0683,0.0726,0.0768,0.0805,0.0881,0.0876,0.0944,0.0945,0.0968,0.1008,0.0929,0.0932,0.0765,0.0667,0.0498,0.0318,0.0361,0.0137,0.0097,0.0122,0.0117,0.0137,0.0133,0.0179,0.018,0.018,0.018,0,0.0725,0.0753,0.0825,0.0884,0.091,0.0962,0.1028,0.107,0.1082,0.1134,0.1139,0.1068,0.0944,0.076,0.056,0.0407,0.0235,0.0153,0.0185,0.015,0.0034,0.0031,0.0035,0.0033,0.0032,0.003,0.0029,0,0.0748,0.0798,0.0883,0.093,0.0964,0.1039,0.109,0.1126,0.1172,0.1206,0.1234,0.1147,0.1073,0.0782,0.0522,0.0269,0.0213,0.0097,0.0055,0.0064,0.0024,0.0024,0.0023,0.008,0.008,0.0079,0.0079,0,0.0804,0.0837,0.0897,0.0988,0.1055,0.1134,0.1209,0.1267,0.1309,0.1349,0.1364,0.1316,0.1066,0.0814,0.047,0.029,0.0147,0.0078,0.0106,0.0104,0.0101,0.0064,0.0063,0.0075,0.0075,0.0076,0.0076,0.0076,0.0832,0.0876,0.0946,0.103,0.1111,0.1199,0.1256,0.1333,0.141,0.146,0.1437,0.1363,0.1121,0.0678,0.0399,0.0111,0.0118,-0.0007,-0.0003,0.0001,0.0002,-0.0004,-0.0049,-0.005,-0.005,-0.005,-0.005,0,0.0846,0.0897,0.0979,0.1068,0.114,0.1193,0.1308,0.1354,0.1428,0.1491,0.1493,0.124,0.0979,0.0698,0.0281,0.002,0.0014,-0.0077,-0.0019,-0.0013,-0.0009,-0.0006,-0.0061,-0.0062,-0.0063,-0.0063,0,0,0.0845,0.0913,0.0951,0.1056,0.1125,0.1213,0.1274,0.1355,0.142,0.1448,0.1426,0.1386,0.106,0.0751,0.042,0.0181,0.0137,0.0125,0.0161,0.0274,0.0281,0.0056,0.0069,0,0,0,0,0]}],[{"header":{"parameterUnit":"m.s-1","parameterCategory":2,"la1":30.2991,"la2":30.254,"lo1":-89.0895,"lo2":-89.0444,"dy":0.0017,"dx":0.0017,"nx":28,"ny":28,"refTime":"2024-07-29T21:00:00:Z","depth":"4","parameterNumber":2,"parameterNumberName":"U-component_of_CURRENTS"},"data":[0,0,0,0,0,0,0,0,0,0,0,0,0,0,0,0,0,0,0,0,0,0,0,0,0,0,0,0,0,0,0,0,0,0,0,0,0,0,0,0,0,0,0,0,0,0,0,0,0,0,0,0,0,0,0,0,0,0,0.0648,0.0649,0,0.0707,0.0707,0.0707,0.0847,0.085,0.0854,0.0857,0.0888,0.0886,0.0883,0,0,0,0,0,0,0,0,0,0,0,0,0,0.0554,0.0555,0.0647,0.0649,0.065,0.0707,0.0707,0.0707,0.0846,0.0851,0.0855,0.0859,0.0889,0.0886,0.0883,0,0,0,0,0,0,0,0,0,0,0,0,0,0.0596,0.0555,0.0647,0.0732,0.074,0.0707,0.0707,0.0707,0.0845,0.0851,0.0856,0.0861,0.089,0.0886,0.0882,0.0753,0,0,0.0871,0.0869,0,0,0,0,0,0,0,0,0.0593,0.0598,0.0718,0.0726,0.0735,0.0781,0.0686,0.0723,0.0844,0.0798,0.0857,0.0864,0.085,0.085,0.084,0.0755,0.0756,0.0871,0.0869,0.0867,0.0866,0,0,0,0,0,0,0,0.059,0.0596,0.0664,0.0719,0.073,0.0732,0.0744,0.0693,0.0788,0.0803,0.0815,0.083,0.0855,0.0843,0.0842,0.0756,0.0871,0.0868,0.0865,0.0864,0.09,0.0903,0,0,0,0,0,0,0.0596,0.0593,0.0662,0.0666,0.0684,0.0731,0.0744,0.0755,0.0789,0.0802,0.0826,0.0837,0.0847,0.0846,0.0843,0.097,0.0867,0.0863,0.0861,0.0897,0.0901,0.0905,0,0,0,0,0,0,0.0594,0.0601,0.066,0.0637,0.0646,0.0728,0.0739,0.0754,0.0792,0.0809,0.0821,0.0857,0.0851,0.0849,0.0931,0.0962,0.0862,0.0858,0.0893,0.0898,0.0903,0.1045,0,0,0,0,0,0,0.059,0.0599,0.0637,0.0637,0.0648,0.0702,0.0735,0.0751,0.0794,0.0811,0.0836,0.0843,0.0855,0.0938,0.0928,0.0955,0.0855,0.0889,0.0896,0.0901,0.1036,0.1054,0.1069,0,0,0,0,0,0.0586,0.063,0.0637,0.0648,0.0687,0.0704,0.071,0.078,0.0791,0.0827,0.0897,0.0845,0.0968,0.0938,0.0925,0.0952,0.0886,0.0894,0.0901,0.1029,0.105,0.1069,0,0,0,0,0,0,0.0636,0.0648,0.0658,0.0711,0.0729,0.0733,0.0771,0.078,0.0847,0.0881,0.0883,0.0896,0.0984,0.0943,0.091,0.0986,0.0914,0.092,0.1016,0.1036,0.1052,0.1042,0.0852,0,0,0,0,0,0.0648,0.0668,0.0683,0.0723,0.073,0.0736,0.0757,0.0795,0.0838,0.0873,0.091,0.0946,0.0981,0.1,0.1028,0.1038,0.103,0.105,0.1066,0.108,0.1068,0.1183,0.1209,0.0928,0.0928,0.0928,0,0,0.0668,0.0685,0.0696,0.0732,0.0738,0.0784,0.0763,0.0806,0.0858,0.0856,0.0968,0.1005,0.1005,0.1084,0.111,0.1062,0.1149,0.109,0.1102,0.1081,0.1193,0.1221,0.1245,0.0933,0.0932,0.0931,0,0,0.0719,0.0733,0.0769,0.079,0.0828,0.0837,0.0853,0.0888,0.0924,0.0995,0.1047,0.1117,0.1138,0.1185,0.1188,0.1284,0.1246,0.1294,0.1348,0.1462,0.1486,0.1507,0.1496,0.1515,0.1287,0.1288,0.1288,0,0.0772,0.081,0.0786,0.0838,0.0877,0.0865,0.0928,0.094,0.102,0.1063,0.1064,0.1163,0.1173,0.1248,0.1328,0.1314,0.1359,0.1273,0.1485,0.1506,0.1525,0.1509,0.1528,0.1295,0.1295,0.1294,0.1293,0,0.083,0.0894,0.0913,0.0974,0.1004,0.1057,0.1069,0.1131,0.1152,0.118,0.1266,0.1286,0.1357,0.1361,0.1375,0.1512,0.149,0.1509,0.1434,0.1562,0.1536,0.1553,0.1307,0.1304,0.1301,0.13,0,0,0.0899,0.0953,0.0973,0.1014,0.1089,0.1105,0.1195,0.1266,0.1324,0.1363,0.1444,0.1487,0.1506,0.1514,0.1525,0.1595,0.1761,0.1633,0.1636,0.1617,0.1971,0.182,0.1823,0.1872,0.1877,0.1881,0.1884,0,0.098,0.1073,0.1098,0.1208,0.125,0.1289,0.1355,0.1416,0.1459,0.1549,0.1524,0.1608,0.1552,0.1613,0.1681,0.1764,0.1824,0.1753,0.1851,0.185,0.1701,0.1845,0.1897,0.1897,0.1901,0.1903,0.1905,0,0.1045,0.1102,0.1209,0.1294,0.1317,0.1398,0.1502,0.1567,0.1668,0.1704,0.1767,0.178,0.1861,0.1815,0.1929,0.1916,0.1969,0.1982,0.1985,0.1803,0.1735,0.1752,0.1936,0.1934,0.1931,0.1929,0.1927,0,0.1049,0.118,0.126,0.1297,0.1398,0.1474,0.1543,0.164,0.1691,0.1841,0.1904,0.1968,0.2015,0.2093,0.2101,0.2089,0.2216,0.2192,0.2059,0.2043,0.2108,0.2086,0.2309,0.2309,0.2309,0.2309,0.2309,0,0.1105,0.1176,0.1273,0.132,0.1421,0.149,0.1617,0.1695,0.1817,0.1882,0.1994,0.202,0.2122,0.2177,0.2183,0.2147,0.2282,0.2076,0.2068,0.2159,0.2143,0.2117,0.2094,0.2309,0.2309,0.2309,0.2309,0,0.1084,0.1156,0.1256,0.1386,0.1425,0.15,0.1647,0.1718,0.1855,0.1954,0.2016,0.2128,0.2189,0.2214,0.232,0.2223,0.2224,0.2192,0.2224,0.2215,0.1936,0.1921,0.202,0.2016,0.2012,0.2008,0.2006,0,0.1064,0.1114,0.1273,0.1321,0.1396,0.1516,0.1581,0.1728,0.179,0.1956,0.1977,0.211,0.2157,0.2136,0.2196,0.2173,0.2156,0.2122,0.2069,0.1941,0.1924,0.1915,0.1905,0.2,0.1999,0.1998,0.1997,0,0.1041,0.1121,0.1201,0.1295,0.1386,0.1463,0.1569,0.1605,0.1752,0.1887,0.192,0.1954,0.2012,0.2035,0.2062,0.2035,0.2125,0.2081,0.2087,0.2037,0.1917,0.1902,0.1897,0.1983,0.1985,0.1986,0.1987,0,0.1032,0.1069,0.1179,0.125,0.1341,0.1372,0.1448,0.1511,0.1592,0.1757,0.1753,0.1875,0.1987,0.1962,0.1966,0.1954,0.1903,0.1826,0.1845,0.186,0.1808,0.1632,0.1622,0,0,0,0,0,0.1016,0.1038,0.1101,0.1178,0.1256,0.1303,0.1404,0.1476,0.1613,0.1596,0.1672,0.1713,0.1735,0.1792,0.1742,0.1865,0.19,0.1795,0.1819,0.1909,0.1925,0.1878,0,0,0,0,0,0,0.1006,0.1074,0.1086,0.1099,0.1117,0.1187,0.1248,0.1333,0.1333,0.1474,0.1505,0.1603,0.166,0.1753,0.1711,0.1723,0.17,0.1867,0.1862,0.1901,0.1915,0.1927,0.1885,0,0,0,0,0]},{"header":{"parameterUnit":"m.s-1","parameterCategory":2,"la1":30.2991,"la2":30.254,"lo1":-89.0895,"lo2":-89.0444,"dy":0.0017,"dx":0.0017,"nx":28,"ny":28,"refTime":"2024-07-29T21:00:00:Z","depth":"4","parameterNumber":3,"parameterNumberName":"V-component_of_CURRENTS"},"data":[0,0,0,0,0,0,0,0,0,0,0,0,0,0,0,0,0,0,0,0,0,0,0,0,0,0,0,0,0,0,0,0,0,0,0,0,0,0,0,0,0,0,0,0,0,0,0,0,0,0,0,0,0,0,0,0,0,0,0.0358,0.0358,0,0.0312,0.0311,0.031,0.0313,0.0314,0.0315,0.0316,0.0233,0.023,0.0227,0,0,0,0,0,0,0,0,0,0,0,0,0,0.0374,0.0374,0.0358,0.0358,0.0358,0.0312,0.0311,0.031,0.0312,0.0314,0.0315,0.0316,0.0234,0.0231,0.0227,0,0,0,0,0,0,0,0,0,0,0,0,0,0.0347,0.0374,0.0359,0.0358,0.0357,0.0312,0.0311,0.0309,0.0312,0.0314,0.0315,0.0317,0.0236,0.0231,0.0226,0.0162,0,0,0.0211,0.0209,0,0,0,0,0,0,0,0,0.0349,0.0346,0.0358,0.0358,0.0357,0.0324,0.0286,0.026,0.0312,0.0324,0.0316,0.0318,0.0262,0.0255,0.0236,0.0159,0.0155,0.0211,0.0208,0.0206,0.0204,0,0,0,0,0,0,0,0.0351,0.0348,0.0335,0.0358,0.0357,0.0334,0.0332,0.0281,0.028,0.0323,0.0324,0.0326,0.0261,0.0241,0.0234,0.0154,0.0211,0.0207,0.0204,0.0202,0.007,0.0069,0,0,0,0,0,0,0.0368,0.035,0.0337,0.0334,0.0363,0.0333,0.0331,0.0329,0.0281,0.0277,0.0325,0.0327,0.0249,0.024,0.0232,0.0215,0.0206,0.0201,0.0198,0.007,0.007,0.0069,0,0,0,0,0,0,0.0369,0.0367,0.0339,0.0345,0.034,0.0332,0.0329,0.0327,0.0326,0.0284,0.0279,0.0329,0.0249,0.0238,0.0208,0.021,0.0199,0.0195,0.0071,0.007,0.0069,0.0143,0,0,0,0,0,0,0.0369,0.0367,0.0381,0.0346,0.0341,0.033,0.0328,0.0325,0.0326,0.0328,0.0285,0.0278,0.025,0.0215,0.0203,0.0203,0.0191,0.0072,0.0071,0.007,0.0141,0.0144,0.0147,0,0,0,0,0,0.037,0.038,0.0382,0.0381,0.0357,0.0331,0.0325,0.0321,0.0325,0.0325,0.03,0.028,0.0199,0.0211,0.0196,0.0195,0.0072,0.0071,0.007,0.0139,0.0144,0.0147,0,0,0,0,0,0,0.0382,0.0381,0.0382,0.0389,0.0372,0.0334,0.034,0.0327,0.0304,0.0315,0.0271,0.0261,0.0234,0.0197,0.0211,0.0152,0.0132,0.0128,0.019,0.0193,0.0196,0.0203,0.0187,0,0,0,0,0,0.0393,0.0409,0.0389,0.0394,0.0393,0.0366,0.0359,0.0354,0.0327,0.032,0.0293,0.0256,0.021,0.0193,0.0151,0.0115,0.0074,0.0103,0.0106,0.0109,0.0103,0.0047,0.0045,0.0065,0.0065,0.0065,0,0,0.0388,0.04,0.0401,0.04,0.0388,0.0381,0.0366,0.0363,0.0354,0.0311,0.0301,0.0266,0.0201,0.0171,0.0154,0.0147,0.0083,0.0108,0.0111,0.0102,0.0045,0.0043,0.0042,0.0064,0.0064,0.0064,0,0,0.0398,0.0408,0.0428,0.0422,0.0426,0.0406,0.041,0.0386,0.0381,0.0354,0.0324,0.0283,0.0229,0.018,0.0145,0.0129,0.0101,0.0133,0.0156,0.0102,0.0101,0.0098,0.0057,0.005,0.0137,0.0137,0.0137,0,0.0401,0.0419,0.0424,0.0442,0.0439,0.042,0.0421,0.0402,0.0373,0.0362,0.0365,0.0262,0.0219,0.015,0.0163,0.0135,0.0119,0.0154,0.0109,0.0105,0.0102,0.0059,0.0051,0.014,0.014,0.0139,0.0139,0,0.0413,0.0436,0.0445,0.0464,0.0459,0.0456,0.0437,0.0434,0.0423,0.0398,0.0348,0.028,0.0223,0.0202,0.0183,0.0138,0.014,0.0122,0.0107,0.0105,0.0059,0.005,0.0145,0.0144,0.0143,0.0142,0,0,0.0403,0.0446,0.0455,0.0471,0.0472,0.0466,0.0459,0.0435,0.0431,0.0392,0.0365,0.0281,0.0264,0.0221,0.0182,0.0138,0.0109,0.0146,0.0141,0.0118,0.0019,0.0048,0.004,0.0109,0.0107,0.0106,0.0002,0,0.0412,0.0457,0.0468,0.0486,0.0498,0.0486,0.0475,0.0457,0.0439,0.0417,0.0334,0.0297,0.0264,0.0251,0.02,0.0133,0.0086,0.0139,0.0011,0.0006,0.0044,0.003,0.0101,-0.0005,-0.0007,-0.0009,-0.001,0,0.0427,0.0458,0.049,0.0509,0.0512,0.0516,0.0507,0.05,0.0463,0.0449,0.0397,0.0352,0.0272,0.0252,0.0113,0.0167,0.0105,0.0043,0.0037,0.0029,0.0017,-0.001,-0.0028,-0.0027,-0.0026,-0.0024,-0.0023,0,0.0435,0.0472,0.0504,0.0509,0.0524,0.0533,0.0535,0.0516,0.0524,0.0485,0.0484,0.0375,0.0334,0.0228,0.0123,0.0132,-0.0021,-0.0041,-0.0093,-0.0092,-0.0117,-0.0114,-0.0148,-0.0148,-0.0148,-0.0148,-0.0147,0,0.0446,0.0473,0.0517,0.0535,0.056,0.0564,0.0591,0.0576,0.0572,0.058,0.0517,0.0485,0.0338,0.0242,0.0133,0.0002,-0.0022,-0.0096,-0.012,-0.0083,-0.0075,-0.0124,-0.0119,-0.0151,-0.0151,-0.015,-0.0149,0,0.0459,0.0489,0.053,0.0562,0.0576,0.0602,0.0648,0.0666,0.0659,0.0667,0.0663,0.0575,0.0452,0.0296,0.0115,0.0024,-0.0118,-0.016,-0.0097,-0.0115,-0.0159,-0.015,-0.0244,-0.0244,-0.0244,-0.0244,-0.0244,0,0.0468,0.0496,0.056,0.0595,0.0619,0.0667,0.0699,0.0713,0.0735,0.0714,0.071,0.0615,0.0537,0.0302,0.0136,-0.0089,-0.0117,-0.0192,-0.0193,-0.0157,-0.0171,-0.0162,-0.0153,-0.0244,-0.0244,-0.0244,-0.0244,0,0.048,0.0517,0.0552,0.0624,0.0678,0.0732,0.0776,0.08,0.081,0.0807,0.0759,0.0642,0.0505,0.0315,0.0156,-0.0011,-0.0148,-0.0193,-0.0195,-0.0196,-0.0158,-0.0169,-0.0161,-0.0243,-0.0243,-0.0243,-0.0243,0,0.049,0.0518,0.058,0.0638,0.0708,0.0766,0.0795,0.0819,0.0841,0.0817,0.0799,0.0657,0.0574,0.0355,0.0198,0.0051,-0.0,-0.0058,-0.0068,-0.007,0.0016,0.0093,0.0058,0,0,0,0,0,0.0489,0.0526,0.0584,0.0649,0.0722,0.0763,0.0826,0.0851,0.0863,0.0842,0.0826,0.0702,0.0485,0.0387,0.0244,0.0175,-0.004,0.0,-0.0115,-0.0242,-0.0242,-0.0168,0,0,0,0,0,0,0.0487,0.0548,0.0577,0.0652,0.0697,0.0773,0.082,0.0834,0.0822,0.0818,0.071,0.066,0.045,0.0568,0.0238,0.0193,0.0099,-0.01,-0.0103,-0.0242,-0.0242,-0.0242,-0.0166,0,0,0,0,0]}]]